Simultaneous Nadir Overpasses (SNOs) Predictions

Prediction of SNOs between AQUA and NPP Satellite Orbit:

Table of predicted SNOs for the next 14.0 days since TLE Epoch: 4/27/2019
Index Date (AQUA) Time (AQUA) Lat,Lon (AQUA) SZA (AQUA ) Date (NPP) Time (NPP) Lat,Lon (NPP) SZA (NPP ) Distance(km) Time Diff (sec)
1 04/28/2019 14:05:44 -75.19, 25.35 95.88 04/28/2019 14:04:42 -75.19, 25.35 95.83 0.24 62
2 04/28/2019 14:54:45 76.43,-163.31 82.69 04/28/2019 14:54:59 76.44,-163.23 82.66 2.34 14
3 05/01/2019 06:22:03 -75.66, 142.53 97.24 05/01/2019 06:21:29 -75.66, 142.55 97.21 0.69 34
4 05/01/2019 07:11:13 76.44, -47.38 81.85 05/01/2019 07:11:56 76.43, -47.49 81.84 2.91 43
5 05/03/2019 22:38:21 -76.11,-100.22 98.55 05/03/2019 22:38:15 -76.12,-100.16 98.56 1.57 6
6 05/03/2019 23:27:33 76.79, 69.68 80.65 05/03/2019 23:28:44 76.78, 69.62 80.60 1.76 71
7 05/06/2019 14:05:42 75.13,-154.82 81.83 05/06/2019 14:04:47 75.12,-154.87 81.89 1.58 55
8 05/06/2019 14:54:41 -76.51, 16.95 99.77 05/06/2019 14:55:03 -76.52, 17.04 99.82 2.83 22
9 05/09/2019 06:21:59 75.68, -37.41 80.48 05/09/2019 06:21:32 75.68, -37.41 80.50 0.13 27




NCC Satellite Simultaneous Nadir Overpasses (SNOs) Prediction Service
